Charlotte, NC

9:53 AM EDT on October 01, 2016 (GMT -0400)
Charlotte-Douglas International

Weather History for KCLT - June, 2013

Change the Weather History Date:

Tuesday, June 4, 2013

  Actual Average Record
Temperature  
Mean Temperature 76 °F 73 °F  
Max Temperature 84 °F 84 °F 98 °F (1911)
Min Temperature 68 °F 62 °F 50 °F (1988)
Degree Days  
Heating Degree Days 0 0  
Month to date heating degree days 0 0  
Since 1 June heating degree days 0 0  
Since 1 July heating degree days 3221 3385  
Cooling Degree Days 11 8  
Month to date cooling degree days 44 30  
Year to date cooling degree days 213 193  
Since 1 June cooling degree days 44 30  
Growing Degree Days 26 (Base 50)    
Moisture  
Dew Point 64 °F    
Average Humidity 71    
Maximum Humidity 87    
Minimum Humidity 55    
Precipitation  
Precipitation T in 0.13 in 2.12 in (1992)
Month to date precipitation 2.52 0.52  
Year to date precipitation 21.27 17.48  
Snow  
Snow 0.00 in 0.00 in 0.00 in ()
Month to date snowfall 0.0 0.0  
Since 1 June snowfall 0.0 0.0  
Since 1 July snowfall 2.7 4.3  
Snow Depth 0.00 in    
Sea Level Pressure  
Sea Level Pressure 30.01 in    
Wind  
Wind Speed 8 mph (NE)    
Max Wind Speed 13 mph    
Max Gust Speed 23 mph    
Visibility 10 miles    
Events Rain    
T = Trace of Precipitation, MM = Missing Value Source: NWS Daily Summary

Daily Weather History Graph

Daily Weather History Graph

Search for Another Location

Airport or City:

Trip Planner

Search our weather history database for the weather conditions in past years. The results will help you decide how hot, cold, wet, or windy it might be!

Date:

Astronomy

Jun. 04, 2013 Rise Set
Actual Time 6:09 AM EDT 8:35 PM EDT
Civil Twilight 5:40 AM EDT 9:04 PM EDT
Nautical Twilight 5:03 AM EDT 9:40 PM EDT
Astronomical Twilight 4:24 AM EDT 10:20 PM EDT
Moon 3:31 AM EDT (6/4) 5:08 PM EDT (6/4)
Length of Visible Light 15h 24m
Length of Day
14h 25m
Waning Crescent, 14% of the Moon is Illuminated
Jun 4
Waning Crescent
Jun 8
New
Jun 16
First Quarter
Jun 23
Full
Jun 30
Last Quarter

Hourly Weather History & Observations

Time (EDT) Temp. Heat Index Dew Point Humidity Pressure Visibility Wind Dir Wind Speed Gust Speed Precip Events Conditions
12:52 AM 71.1 °F - 64.0 °F 78% 29.97 in 10.0 mi East 4.6 mph - N/A   Mostly Cloudy
1:52 AM 70.0 °F - 64.0 °F 81% 29.96 in 10.0 mi NNE 4.6 mph - N/A   Scattered Clouds
2:52 AM 68.0 °F - 64.9 °F 90% 29.95 in 10.0 mi Calm Calm - 0.00 in Rain Light Rain
3:52 AM 70.0 °F - 64.9 °F 84% 29.94 in 10.0 mi Calm Calm - 0.00 in   Overcast
4:24 AM 68.0 °F - 66.2 °F 94% 29.98 in 10.0 mi NNW 6.9 mph 17.3 mph N/A   Overcast
4:52 AM 68.0 °F - 64.9 °F 90% 29.96 in 10.0 mi NNE 9.2 mph - N/A   Overcast
5:52 AM 68.0 °F - 64.9 °F 90% 29.96 in 10.0 mi NE 6.9 mph - N/A   Mostly Cloudy
6:52 AM 69.1 °F - 64.9 °F 87% 29.99 in 10.0 mi ENE 6.9 mph - N/A   Mostly Cloudy
7:52 AM 71.1 °F - 64.9 °F 81% 30.01 in 10.0 mi NNE 8.1 mph - N/A   Scattered Clouds
8:52 AM 73.0 °F - 62.1 °F 68% 30.02 in 10.0 mi NE 9.2 mph - N/A   Mostly Cloudy
9:52 AM 75.9 °F - 63.0 °F 64% 30.03 in 10.0 mi NE 9.2 mph 16.1 mph N/A   Scattered Clouds
10:52 AM 78.1 °F - 64.9 °F 64% 30.04 in 10.0 mi ENE 10.4 mph - N/A   Scattered Clouds
11:52 AM 80.1 °F 81.9 °F 64.9 °F 60% 30.05 in 10.0 mi ENE 8.1 mph 23.0 mph N/A   Scattered Clouds
12:52 PM 79.0 °F - 64.0 °F 60% 30.04 in 10.0 mi ENE 10.4 mph - N/A   Mostly Cloudy
1:52 PM 80.1 °F 81.7 °F 64.0 °F 58% 30.03 in 10.0 mi ENE 4.6 mph - N/A   Mostly Cloudy
2:52 PM 84.0 °F 86.3 °F 66.0 °F 55% 30.02 in 10.0 mi NNE 8.1 mph - N/A   Mostly Cloudy
3:52 PM 81.0 °F 82.5 °F 64.0 °F 56% 30.01 in 10.0 mi NE 9.2 mph - N/A   Mostly Cloudy
4:52 PM 81.0 °F 82.5 °F 64.0 °F 56% 30.01 in 10.0 mi ENE 6.9 mph - N/A   Mostly Cloudy
5:52 PM 82.0 °F 83.4 °F 64.0 °F 54% 30.00 in 10.0 mi ENE 9.2 mph - N/A   Mostly Cloudy
6:52 PM 80.1 °F 81.9 °F 64.9 °F 60% 30.01 in 10.0 mi NE 8.1 mph - N/A   Mostly Cloudy
7:52 PM 78.1 °F - 64.9 °F 64% 30.03 in 10.0 mi ENE 10.4 mph - N/A   Mostly Cloudy
8:52 PM 75.9 °F - 64.9 °F 69% 30.04 in 10.0 mi ENE 10.4 mph - N/A   Scattered Clouds
9:52 PM 75.0 °F - 64.9 °F 71% 30.06 in 10.0 mi East 6.9 mph - N/A   Partly Cloudy
10:52 PM 73.9 °F - 64.0 °F 71% 30.06 in 10.0 mi ENE 8.1 mph - N/A   Partly Cloudy
11:52 PM 73.0 °F - 64.0 °F 73% 30.07 in 10.0 mi ENE 8.1 mph - N/A   Scattered Clouds